Total_Precipitation_Accumulation
1.76 2.23 2.87 3.56 4.39 5.51 6.19 6.34 6.11 5.45 4.97 4.56 4.33 4.06 3.81 3.52 3.01 2.61 2.39 2.29 2.21 2.22 2.53 2.34 2.39 2.22 2.28 2.37 2.43 2.67 2.79 2.56 2.74 3.12 2.94 2.60 2.32 2.25 2.15 2.09 2.17 2.17 2.30
1.64 2.24 3.00 3.81 4.51 5.06 5.42 5.51 5.15 4.43 3.96 3.75 3.74 3.47 3.27 2.94 2.71 2.46 2.48 2.14 2.06 2.15 2.11 2.34 2.18 2.14 2.39 2.35 2.43 2.65 2.61 2.34 2.52 3.03 3.26 3.01 2.94 2.37 1.74 1.95 2.09 2.15 2.42
1.84 2.61 3.40 4.18 4.50 4.54 4.32 4.01 3.84 3.49 3.41 3.41 3.26 3.06 3.00 2.72 2.54 2.34 2.29 1.97 1.76 1.80 1.92 1.99 1.98 2.14 2.08 2.28 2.43 2.51 2.72 2.67 2.42 2.44 2.94 2.96 2.92 2.62 2.04 1.75 1.86 2.17 2.47
2.01 2.69 3.22 3.46 3.61 3.54 3.25 3.07 3.02 2.97 2.93 2.87 2.78 2.51 2.38 2.37 2.23 2.16 2.20 2.09 1.82 1.79 1.84 1.87 2.05 2.12 2.00 2.31 2.02 2.19 2.58 2.75 2.48 2.47 2.39 2.44 2.64 2.72 2.53 2.15 1.86 2.05 2.16
1.66 1.83 2.02 2.15 2.26 2.29 2.45 2.53 2.68 2.82 2.73 2.68 2.69 2.64 2.36 2.32 2.30 2.31 2.43 2.32 2.07 1.88 1.70 1.88 2.15 2.25 2.11 2.15 2.18 2.44 2.42 2.44 2.40 2.36 2.31 2.44 2.52 2.34 2.41 2.41 2.22 2.05 1.72
1.10 1.18 1.26 1.36 1.57 1.62 1.84 2.04 2.17 2.32 2.49 2.53 2.39 2.34 2.31 2.40 2.46 2.43 2.29 2.11 2.00 1.91 1.81 1.96 2.22 2.25 2.30 2.27 2.21 2.23 2.23 2.39 2.49 2.41 2.26 2.35 2.48 2.48 2.59 2.35 2.27 2.28 1.96
0.86 1.00 1.11 1.21 1.42 1.37 1.45 1.68 1.77 1.77 1.91 1.96 1.94 2.01 2.19 2.27 2.15 2.07 2.01 1.92 1.70 1.73 1.86 1.97 2.20 2.19 2.20 2.15 2.36 2.36 2.26 2.36 2.39 2.34 2.31 2.24 2.16 2.29 2.47 2.48 2.30 2.28 2.15
0.76 0.85 0.85 0.94 1.09 1.09 1.22 1.35 1.44 1.50 1.56 1.66 1.79 1.76 1.91 1.93 1.85 1.97 1.85 1.77 1.53 1.44 1.57 1.74 1.80 1.89 1.94 1.90 2.40 2.29 2.31 2.39 2.24 2.10 2.46 2.33 2.03 2.19 2.33 2.57 2.84 2.67 2.51
0.62 0.69 0.65 0.64 0.78 0.91 1.04 1.13 1.21 1.33 1.37 1.52 1.62 1.60 1.69 1.79 1.86 1.88 1.78 1.61 1.64 1.48 1.54 1.63 1.85 1.99 2.05 2.12 2.41 2.34 2.32 2.49 2.26 2.19 2.37 2.29 2.18 2.16 2.14 2.53 2.93 3.16 2.94
0.54 0.59 0.60 0.53 0.62 0.78 1.05 1.12 1.14 1.30 1.33 1.44 1.47 1.34 1.52 1.65 1.83 1.80 1.70 1.64 1.66 1.62 1.74 1.84 2.00 2.11 2.08 2.12 2.34 2.29 2.40 2.52 2.38 2.34 2.38 2.30 2.22 2.32 2.24 2.38 2.70 2.98 3.18
0.60 0.57 0.55 0.55 0.53 0.66 0.88 0.96 1.13 1.25 1.31 1.40 1.51 1.58 1.59 1.53 1.67 1.72 1.70 1.72 1.75 1.73 1.81 1.92 2.08 2.11 2.18 2.30 2.42 2.24 2.35 2.48 2.64 2.51 2.50 2.54 2.64 2.60 2.48 2.58 2.68 2.87 3.16
0.51 0.55 0.57 0.61 0.58 0.59 0.72 0.89 1.08 1.24 1.30 1.38 1.54 1.65 1.82 1.78 1.73 1.72 1.77 1.85 1.97 2.05 2.00 2.07 2.13 2.02 2.08 2.30 2.37 2.36 2.40 2.43 2.48 2.67 2.93 2.81 2.86 2.80 2.64 2.77 2.72 2.80 3.13
0.60 0.62 0.66 0.70 0.76 0.75 0.77 0.89 1.07 1.26 1.40 1.51 1.64 1.81 1.92 1.82 1.73 1.85 1.95 1.99 2.15 2.31 2.37 2.39 2.24 2.15 2.14 2.22 2.33 2.45 2.46 2.47 2.52 2.68 2.76 2.81 3.03 2.90 2.79 2.70 2.67 2.76 2.94
0.75 0.74 0.74 0.75 0.86 1.03 1.02 1.08 1.34 1.39 1.44 1.69 1.92 2.00 2.05 1.96 1.90 2.01 2.11 2.13 2.21 2.36 2.51 2.48 2.42 2.35 2.24 2.11 2.09 2.18 2.27 2.41 2.57 2.61 2.52 2.62 2.88 2.95 2.94 2.72 2.70 2.84 2.97
0.71 0.66 0.67 0.73 0.84 1.00 1.10 1.23 1.29 1.51 1.64 1.89 2.04 2.08 2.17 2.19 2.21 2.32 2.33 2.25 2.28 2.32 2.49 2.52 2.55 2.53 2.33 2.05 2.14 2.28 2.27 2.45 2.46 2.37 2.26 2.26 2.52 2.75 2.83 2.56 2.57 2.73 2.76
0.73 0.79 0.83 0.85 0.88 0.95 1.06 1.16 1.24 1.52 1.81 2.06 2.29 2.34 2.39 2.38 2.48 2.63 2.69 2.60 2.59 2.71 2.72 2.60 2.54 2.47 2.10 2.22 2.31 2.33 2.34 2.44 2.43 2.36 2.26 2.14 2.11 2.12 2.28 2.40 2.52 2.67 2.66
0.88 0.94 1.05 1.04 1.01 1.05 1.11 1.21 1.35 1.59 1.86 2.10 2.33 2.50 2.57 2.63 2.74 2.84 2.85 2.80 2.90 3.08 3.06 2.89 2.71 2.55 2.49 2.44 2.23 2.21 2.08 2.10 2.15 2.23 2.23 1.93 1.74 1.86 1.78 2.01 2.20 2.30 2.39
0.90 0.97 1.14 1.18 1.15 1.16 1.22 1.38 1.59 1.86 2.15 2.35 2.48 2.59 2.65 2.70 2.78 2.85 2.73 2.77 2.94 3.02 3.03 2.92 2.78 2.65 2.56 2.47 2.18 2.15 1.91 1.88 1.90 1.96 1.99 1.92 1.79 1.80 1.93 1.93 1.85 1.79 1.87
1.00 1.11 1.23 1.32 1.39 1.44 1.50 1.58 1.75 1.99 2.26 2.47 2.51 2.52 2.62 2.71 2.77 2.81 2.83 2.86 2.89 2.78 2.67 2.57 2.55 2.53 2.58 2.59 2.28 2.10 1.85 1.87 1.83 1.81 1.83 1.85 1.74 1.92 1.90 1.85 1.82 1.80 1.80
1.10 1.21 1.23 1.28 1.40 1.51 1.55 1.67 1.87 2.11 2.32 2.50 2.53 2.53 2.67 2.78 2.81 2.89 2.94 2.89 2.81 2.72 2.63 2.48 2.46 2.45 2.41 2.48 2.15 2.01 1.81 1.81 1.79 1.83 1.83 1.84 1.73 1.76 1.69 1.64 1.74 1.71 1.73
1.21 1.26 1.31 1.30 1.35 1.47 1.58 1.72 1.86 2.02 2.18 2.37 2.50 2.66 2.84 2.92 2.93 2.97 2.89 2.82 2.73 2.74 2.70 2.56 2.45 2.40 2.34 2.38 2.11 1.94 1.70 1.80 1.97 1.94 1.86 1.85 1.82 1.53 1.49 1.49 1.53 1.57 1.62
1.24 1.30 1.36 1.46 1.53 1.60 1.64 1.75 1.77 1.89 2.10 2.17 2.31 2.41 2.57 2.70 2.73 2.80 2.77 2.82 2.76 2.65 2.55 2.43 2.29 2.22 2.22 2.13 2.03 1.86 1.69 1.75 1.87 1.91 1.90 1.92 1.85 1.55 1.43 1.31 1.30 1.37 1.33
1.51 1.50 1.42 1.46 1.52 1.61 1.70 1.81 1.84 1.83 1.89 2.00 2.16 2.33 2.43 2.60 2.71 2.74 2.74 2.69 2.60 2.43 2.27 2.17 2.07 2.09 2.14 2.11 1.93 1.72 1.63 1.66 1.68 1.76 1.91 1.80 1.68 1.48 1.27 1.22 1.21 1.21 1.14
1.37 1.47 1.42 1.46 1.65 1.58 1.61 1.74 1.84 1.84 1.89 1.98 2.05 2.17 2.26 2.36 2.58 2.65 2.57 2.44 2.24 2.11 2.07 2.03 2.04 2.09 2.12 2.03 1.84 1.62 1.48 1.53 1.59 1.62 1.68 1.67 1.65 1.57 1.40 1.28 1.19 1.12 1.17
1.24 1.25 1.26 1.31 1.43 1.45 1.48 1.57 1.68 1.74 1.74 1.76 1.77 1.79 1.96 2.12 2.27 2.32 2.25 2.11 1.98 2.06 2.08 2.03 1.99 1.91 1.84 1.91 1.86 1.64 1.54 1.54 1.60 1.56 1.55 1.59 1.70 1.74 1.70 1.62 1.51 1.45 1.46
1.17 1.17 1.17 1.17 1.24 1.33 1.45 1.54 1.71 1.84 1.86 1.82 1.76 1.68 1.66 1.77 1.98 2.19 2.25 2.13 1.90 1.92 1.87 1.80 1.75 1.69 1.64 1.66 1.65 1.57 1.51 1.57 1.62 1.53 1.59 1.71 1.77 1.82 1.83 1.82 1.71 1.58 1.46